Time,TemperatureF,DewpointF,PressureIn,WindDirection,WindDirectionDegrees,WindSpeedMPH,WindSpeedGustMPH,Humidity,HourlyPrecipIn,Conditions,Clouds,dailyrainin,SolarRadiationWatts/m^2,SoftwareType,DateUTC
2013-03-24 00:07:00,32.7,24.0,29.99,WSW,252,4.0,-999.0,69,-99.99,,,0.01,0,weatherlink.com 1.10,2013-03-24 04:07:00,
2013-03-24 00:22:00,32.8,24.0,29.99,West,268,5.0,-999.0,70,-99.99,,,0.01,0,weatherlink.com 1.10,2013-03-24 04:22:00,
2013-03-24 00:37:00,32.8,24.0,29.99,WSW,251,6.0,-999.0,70,-99.99,,,0.01,0,weatherlink.com 1.10,2013-03-24 04:37:00,
2013-03-24 00:52:00,32.7,24.0,29.99,WSW,246,4.0,-999.0,70,-99.99,,,0.00,0,weatherlink.com 1.10,2013-03-24 04:52:00,
2013-03-24 01:07:00,32.7,24.0,29.99,WSW,245,6.0,-999.0,71,-99.99,,,0.00,0,weatherlink.com 1.10,2013-03-24 05:07:00,
2013-03-24 01:22:00,32.6,24.0,29.99,WSW,247,4.0,-999.0,72,-99.99,,,0.00,0,weatherlink.com 1.10,2013-03-24 05:22:00,
2013-03-24 01:37:00,32.5,25.0,29.98,WSW,249,1.0,-999.0,73,-99.99,,,0.00,0,weatherlink.com 1.10,2013-03-24 05:37:00,
2013-03-24 01:52:00,32.4,25.0,29.98,WSW,250,6.0,-999.0,73,-99.99,,,0.00,0,weatherlink.com 1.10,2013-03-24 05:52:00,
2013-03-24 02:07:00,32.4,25.0,29.97,WSW,249,2.0,-999.0,74,-99.99,,,0.00,0,weatherlink.com 1.10,2013-03-24 06:07:00,
2013-03-24 02:22:00,32.4,25.0,29.97,WSW,251,4.0,-999.0,75,-99.99,,,0.00,0,weatherlink.com 1.10,2013-03-24 06:22:00,
2013-03-24 02:37:00,32.3,26.0,29.95,WSW,252,3.0,-999.0,76,-99.99,,,0.00,0,weatherlink.com 1.10,2013-03-24 06:37:00,
2013-03-24 02:52:00,32.0,25.0,29.95,WSW,244,4.0,-999.0,76,-99.99,,,0.00,0,weatherlink.com 1.10,2013-03-24 06:52:00,
2013-03-24 03:07:00,31.6,25.0,29.95,WSW,245,4.0,-999.0,76,-99.99,,,0.00,0,weatherlink.com 1.10,2013-03-24 07:07:00,
2013-03-24 03:22:00,31.1,25.0,29.94,WSW,245,1.0,-999.0,77,-99.99,,,0.00,0,weatherlink.com 1.10,2013-03-24 07:22:00,
2013-03-24 03:37:00,30.6,25.0,29.94,WSW,240,3.0,-999.0,78,-99.99,,,0.00,0,weatherlink.com 1.10,2013-03-24 07:37:00,
2013-03-24 03:52:00,30.1,24.0,29.94,SW,236,5.0,-999.0,78,-99.99,,,0.00,0,weatherlink.com 1.10,2013-03-24 07:52:00,
2013-03-24 04:07:00,29.7,24.0,29.94,SW,235,0.0,-999.0,79,-99.99,,,0.00,0,weatherlink.com 1.10,2013-03-24 08:07:00,
2013-03-24 04:22:00,29.3,24.0,29.94,SW,231,0.0,-999.0,79,-99.99,,,0.00,0,weatherlink.com 1.10,2013-03-24 08:22:00,
2013-03-24 04:37:00,29.0,24.0,29.95,SW,233,3.0,-999.0,80,-99.99,,,0.00,0,weatherlink.com 1.10,2013-03-24 08:37:00,
2013-03-24 04:52:00,28.8,24.0,29.95,SW,235,2.0,-999.0,81,-99.99,,,0.00,0,weatherlink.com 1.10,2013-03-24 08:52:00,
2013-03-24 05:22:00,28.4,24.0,29.97,WSW,237,2.0,-999.0,82,-99.99,,,0.00,0,weatherlink.com 1.10,2013-03-24 09:22:00,
2013-03-24 05:37:00,28.5,24.0,29.97,WSW,249,4.0,-999.0,83,-99.99,,,0.00,0,weatherlink.com 1.10,2013-03-24 09:37:00,
2013-03-24 05:52:00,28.4,24.0,29.96,WSW,250,2.0,-999.0,83,-99.99,,,0.00,0,weatherlink.com 1.10,2013-03-24 09:52:00,
2013-03-24 06:07:00,28.4,24.0,29.96,WSW,250,5.0,-999.0,84,-99.99,,,0.00,0,weatherlink.com 1.10,2013-03-24 10:07:00,
2013-03-24 06:22:00,28.3,24.0,29.96,WSW,251,0.0,-999.0,84,-99.99,,,0.00,0,weatherlink.com 1.10,2013-03-24 10:22:00,
2013-03-24 06:37:00,28.0,24.0,29.96,WSW,251,2.0,-999.0,84,-99.99,,,0.00,0,weatherlink.com 1.10,2013-03-24 10:37:00,
2013-03-24 06:52:00,27.8,24.0,29.97,WSW,248,1.0,-999.0,85,-99.99,,,0.00,0,weatherlink.com 1.10,2013-03-24 10:52:00,
2013-03-24 07:08:00,27.6,24.0,29.97,WSW,245,4.0,-999.0,85,-99.99,,,0.00,7,weatherlink.com 1.10,2013-03-24 11:08:00,
2013-03-24 07:23:00,27.4,24.0,29.97,SW,229,4.0,-999.0,86,-99.99,,,0.00,18,weatherlink.com 1.10,2013-03-24 11:23:00,
2013-03-24 07:38:00,27.5,24.0,29.97,SW,225,0.0,-999.0,86,-99.99,,,0.00,39,weatherlink.com 1.10,2013-03-24 11:38:00,
2013-03-24 07:53:00,27.5,24.0,29.97,SW,225,3.0,-999.0,87,-99.99,,,0.00,118,weatherlink.com 1.10,2013-03-24 11:53:00,
2013-03-24 08:08:00,27.8,24.0,29.97,SW,227,4.0,-999.0,87,-99.99,,,0.00,95,weatherlink.com 1.10,2013-03-24 12:08:00,
2013-03-24 08:23:00,28.4,25.0,29.98,SW,227,4.0,-999.0,87,-99.99,,,0.00,109,weatherlink.com 1.10,2013-03-24 12:23:00,
2013-03-24 08:38:00,29.2,26.0,29.98,WSW,237,4.0,-999.0,87,-99.99,,,0.00,127,weatherlink.com 1.10,2013-03-24 12:38:00,
2013-03-24 08:53:00,30.0,26.0,29.97,WSW,248,2.0,-999.0,86,-99.99,,,0.00,142,weatherlink.com 1.10,2013-03-24 12:53:00,
2013-03-24 09:08:00,31.0,27.0,29.97,SW,233,0.0,-999.0,86,-99.99,,,0.00,299,weatherlink.com 1.10,2013-03-24 13:08:00,
2013-03-24 09:23:00,32.3,28.0,29.97,WSW,242,5.0,-999.0,84,-99.99,,,0.00,225,weatherlink.com 1.10,2013-03-24 13:23:00,
2013-03-24 09:38:00,33.4,29.0,29.96,West,271,7.0,-999.0,82,-99.99,,,0.00,429,weatherlink.com 1.10,2013-03-24 13:38:00,
2013-03-24 09:53:00,34.4,28.0,29.97,NW,304,6.0,-999.0,78,-99.99,,,0.00,497,weatherlink.com 1.10,2013-03-24 13:53:00,
2013-03-24 10:08:00,34.9,28.0,29.96,NW,317,0.0,-999.0,76,-99.99,,,0.00,619,weatherlink.com 1.10,2013-03-24 14:08:00,
2013-03-24 10:23:00,35.0,26.0,29.96,NW,308,0.0,-999.0,71,-99.99,,,0.00,216,weatherlink.com 1.10,2013-03-24 14:23:00,
2013-03-24 10:38:00,35.3,26.0,29.96,NW,315,5.0,-999.0,70,-99.99,,,0.00,104,weatherlink.com 1.10,2013-03-24 14:38:00,
2013-03-24 10:53:00,35.0,26.0,29.95,West,279,4.0,-999.0,70,-99.99,,,0.00,239,weatherlink.com 1.10,2013-03-24 14:53:00,
2013-03-24 11:08:00,35.2,26.0,29.95,West,278,5.0,-999.0,68,-99.99,,,0.00,401,weatherlink.com 1.10,2013-03-24 15:08:00,
2013-03-24 11:23:00,36.2,25.0,29.96,West,274,6.0,-999.0,65,-99.99,,,0.00,223,weatherlink.com 1.10,2013-03-24 15:23:00,
2013-03-24 11:38:00,36.1,25.0,29.95,West,276,5.0,-999.0,65,-99.99,,,0.00,211,weatherlink.com 1.10,2013-03-24 15:38:00,
2013-03-24 11:53:00,35.9,25.0,29.95,West,265,4.0,-999.0,64,-99.99,,,0.00,290,weatherlink.com 1.10,2013-03-24 15:53:00,
2013-03-24 12:08:00,36.3,25.0,29.94,West,276,5.0,-999.0,63,-99.99,,,0.00,390,weatherlink.com 1.10,2013-03-24 16:08:00,
2013-03-24 12:23:00,36.9,24.0,29.92,NW,311,7.0,-999.0,61,-99.99,,,0.00,271,weatherlink.com 1.10,2013-03-24 16:23:00,
2013-03-24 12:38:00,36.7,25.0,29.90,NW,326,5.0,-999.0,62,-99.99,,,0.00,283,weatherlink.com 1.10,2013-03-24 16:38:00,
2013-03-24 12:53:00,36.6,25.0,29.90,NNW,347,4.0,-999.0,62,-99.99,,,0.00,401,weatherlink.com 1.10,2013-03-24 16:53:00,
2013-03-24 13:08:00,36.9,24.0,29.89,NNW,348,2.0,-999.0,61,-99.99,,,0.00,359,weatherlink.com 1.10,2013-03-24 17:08:00,
2013-03-24 13:23:00,38.4,25.0,29.90,North,349,7.0,-999.0,59,-99.99,,,0.00,445,weatherlink.com 1.10,2013-03-24 17:23:00,
2013-03-24 13:38:00,38.0,24.0,29.89,West,279,0.0,-999.0,58,-99.99,,,0.00,371,weatherlink.com 1.10,2013-03-24 17:38:00,
2013-03-24 13:53:00,37.9,24.0,29.89,NW,311,7.0,-999.0,58,-99.99,,,0.00,369,weatherlink.com 1.10,2013-03-24 17:53:00,
2013-03-24 14:08:00,37.5,24.0,29.88,NW,326,9.0,-999.0,58,-99.99,,,0.00,817,weatherlink.com 1.10,2013-03-24 18:08:00,
2013-03-24 14:23:00,38.5,24.0,29.87,NW,323,6.0,-999.0,57,-99.99,,,0.00,353,weatherlink.com 1.10,2013-03-24 18:23:00,
2013-03-24 14:38:00,37.9,24.0,29.86,NW,312,6.0,-999.0,57,-99.99,,,0.00,649,weatherlink.com 1.10,2013-03-24 18:38:00,
2013-03-24 14:54:00,38.2,24.0,29.85,NW,319,7.0,-999.0,56,-99.99,,,0.00,647,weatherlink.com 1.10,2013-03-24 18:54:00,
2013-03-24 15:09:00,37.9,23.0,29.85,NW,323,5.0,-999.0,55,-99.99,,,0.00,650,weatherlink.com 1.10,2013-03-24 19:09:00,
2013-03-24 15:24:00,37.8,23.0,29.84,NNE,26,7.0,-999.0,56,-99.99,,,0.00,657,weatherlink.com 1.10,2013-03-24 19:24:00,
2013-03-24 15:39:00,37.3,21.0,29.84,NNE,15,2.0,-999.0,53,-99.99,,,0.00,515,weatherlink.com 1.10,2013-03-24 19:39:00,
2013-03-24 15:54:00,37.4,22.0,29.83,NW,316,11.0,-999.0,54,-99.99,,,0.00,434,weatherlink.com 1.10,2013-03-24 19:54:00,
2013-03-24 16:09:00,37.3,23.0,29.82,NNW,348,4.0,-999.0,56,-99.99,,,0.00,446,weatherlink.com 1.10,2013-03-24 20:09:00,
2013-03-24 16:24:00,36.9,22.0,29.82,NNW,330,6.0,-999.0,56,-99.99,,,0.00,406,weatherlink.com 1.10,2013-03-24 20:24:00,
2013-03-24 16:39:00,36.4,22.0,29.82,NW,308,7.0,-999.0,57,-99.99,,,0.00,330,weatherlink.com 1.10,2013-03-24 20:39:00,
2013-03-24 16:54:00,36.1,22.0,29.81,NNW,335,7.0,-999.0,56,-99.99,,,0.00,306,weatherlink.com 1.10,2013-03-24 20:54:00,
2013-03-24 17:09:00,36.0,21.0,29.82,NNW,344,8.0,-999.0,55,-99.99,,,0.00,237,weatherlink.com 1.10,2013-03-24 21:09:00,
2013-03-24 17:24:00,35.6,22.0,29.82,North,11,5.0,-999.0,57,-99.99,,,0.00,255,weatherlink.com 1.10,2013-03-24 21:24:00,
2013-03-24 17:39:00,35.6,22.0,29.81,NW,317,8.0,-999.0,58,-99.99,,,0.00,218,weatherlink.com 1.10,2013-03-24 21:39:00,
2013-03-24 17:54:00,35.1,22.0,29.81,North,350,9.0,-999.0,59,-99.99,,,0.00,144,weatherlink.com 1.10,2013-03-24 21:54:00,
2013-03-24 18:09:00,34.5,23.0,29.82,NNW,337,2.0,-999.0,62,-99.99,,,0.00,97,weatherlink.com 1.10,2013-03-24 22:09:00,
2013-03-24 18:24:00,34.3,22.0,29.82,North,10,7.0,-999.0,61,-99.99,,,0.00,74,weatherlink.com 1.10,2013-03-24 22:24:00,
2013-03-24 18:39:00,34.0,22.0,29.82,NE,39,7.0,-999.0,62,-99.99,,,0.00,51,weatherlink.com 1.10,2013-03-24 22:39:00,
2013-03-24 18:54:00,33.7,22.0,29.82,NNE,19,4.0,-999.0,63,-99.99,,,0.00,32,weatherlink.com 1.10,2013-03-24 22:54:00,
2013-03-24 19:09:00,33.5,22.0,29.81,North,360,3.0,-999.0,64,-99.99,,,0.00,11,weatherlink.com 1.10,2013-03-24 23:09:00,
2013-03-24 19:24:00,33.3,22.0,29.80,NNE,29,0.0,-999.0,64,-99.99,,,0.00,0,weatherlink.com 1.10,2013-03-24 23:24:00,
2013-03-24 19:39:00,33.3,23.0,29.80,NNE,29,0.0,-999.0,65,-99.99,,,0.00,0,weatherlink.com 1.10,2013-03-24 23:39:00,
2013-03-24 19:54:00,33.0,22.0,29.79,NNE,27,0.0,-999.0,65,-99.99,,,0.00,0,weatherlink.com 1.10,2013-03-24 23:54:00,
2013-03-24 20:09:00,32.8,23.0,29.79,NNE,22,1.0,-999.0,66,-99.99,,,0.00,0,weatherlink.com 1.10,2013-03-25 00:09:00,
2013-03-24 20:24:00,32.6,23.0,29.80,NNE,22,1.0,-999.0,67,-99.99,,,0.00,0,weatherlink.com 1.10,2013-03-25 00:24:00,
2013-03-24 20:39:00,32.4,23.0,29.79,NNE,22,0.0,-999.0,67,-99.99,,,0.00,0,weatherlink.com 1.10,2013-03-25 00:39:00,
2013-03-24 20:54:00,32.3,23.0,29.79,NNE,22,0.0,-999.0,68,-99.99,,,0.00,0,weatherlink.com 1.10,2013-03-25 00:54:00,
2013-03-24 21:09:00,32.2,23.0,29.79,NNE,22,0.0,-999.0,69,-99.99,,,0.00,0,weatherlink.com 1.10,2013-03-25 01:09:00,
2013-03-24 21:24:00,31.9,23.0,29.80,NNE,22,0.0,-999.0,69,-99.99,,,0.00,0,weatherlink.com 1.10,2013-03-25 01:24:00,
2013-03-24 21:39:00,31.4,23.0,29.80,NNE,22,0.0,-999.0,70,-99.99,,,0.00,0,weatherlink.com 1.10,2013-03-25 01:39:00,
2013-03-24 21:54:00,31.0,23.0,29.79,NNE,22,0.0,-999.0,71,-99.99,,,0.00,0,weatherlink.com 1.10,2013-03-25 01:54:00,
2013-03-24 22:09:00,30.6,23.0,29.79,NNE,22,0.0,-999.0,73,-99.99,,,0.00,0,weatherlink.com 1.10,2013-03-25 02:09:00,
2013-03-24 22:24:00,30.5,23.0,29.78,NNE,22,1.0,-999.0,74,-99.99,,,0.00,0,weatherlink.com 1.10,2013-03-25 02:24:00,
2013-03-24 22:39:00,31.1,24.0,29.77,NNE,23,1.0,-999.0,76,-99.99,,,0.00,0,weatherlink.com 1.10,2013-03-25 02:39:00,
2013-03-24 22:54:00,31.7,25.0,29.77,NE,42,4.0,-999.0,76,-99.99,,,0.00,0,weatherlink.com 1.10,2013-03-25 02:54:00,
2013-03-24 23:09:00,32.2,25.0,29.76,NE,55,6.0,-999.0,75,-99.99,,,0.00,0,weatherlink.com 1.10,2013-03-25 03:09:00,
2013-03-24 23:24:00,32.3,25.0,29.75,ENE,57,6.0,-999.0,75,-99.99,,,0.00,0,weatherlink.com 1.10,2013-03-25 03:24:00,
2013-03-24 23:39:00,32.3,25.0,29.75,NE,52,6.0,-999.0,74,-99.99,,,0.00,0,weatherlink.com 1.10,2013-03-25 03:39:00,
2013-03-24 23:54:00,32.3,25.0,29.75,NE,42,4.0,-999.0,74,-99.99,,,0.00,0,weatherlink.com 1.10,2013-03-25 03:54:00,